Theta_e
333 330 326 327 327 327 328 330 332 330 323 323 322 322 319 322 324 326 330 331 333 334 333 332 336 336 339 340 342 343 344 342 342 342 341 341 344 345 345 346 345 348 344
328 330 328 327 326 327 327 328 330 325 324 328 328 327 325 324 324 327 329 331 334 335 333 333 335 336 337 339 341 342 343 341 342 342 341 342 345 345 344 345 345 346 344
323 325 329 329 328 327 325 326 328 325 325 330 329 328 326 325 325 327 330 332 333 334 335 333 334 336 336 336 340 341 342 341 339 342 341 342 345 344 343 341 343 341 341
322 322 324 327 326 323 325 329 328 327 329 331 330 329 328 326 326 328 330 331 332 333 334 334 333 335 336 337 338 339 340 341 341 340 342 343 345 340 337 337 339 340 340
320 318 318 321 320 321 326 326 325 326 330 331 331 330 329 327 326 328 329 330 331 331 332 334 332 333 334 336 337 340 339 340 340 341 342 342 340 337 336 338 339 338 338
317 317 318 321 325 324 330 330 326 328 330 331 330 330 330 329 327 327 328 329 330 331 332 331 333 332 333 335 336 338 339 340 340 342 341 340 337 332 332 332 337 337 338
316 316 318 321 324 327 332 336 328 329 329 328 328 328 328 328 328 327 328 328 328 329 330 332 332 332 332 333 334 333 340 339 343 342 341 339 336 334 332 335 336 335 337
317 318 319 319 322 324 327 330 329 329 328 328 329 327 326 326 327 328 328 327 327 327 328 330 329 330 332 331 331 330 339 340 342 341 341 342 334 333 333 338 337 336 338
313 314 316 318 318 318 326 329 325 320 324 324 326 326 327 327 327 325 327 327 328 327 327 328 332 329 331 332 331 330 338 339 340 338 340 336 334 337 333 337 334 336 337
315 318 319 319 317 317 318 318 319 320 320 324 325 326 325 325 327 327 326 324 323 328 328 328 331 330 330 331 329 329 337 339 340 337 338 338 332 333 336 336 334 334 336
317 318 320 320 319 317 318 320 320 320 320 321 322 322 321 324 324 324 325 326 322 327 328 329 331 331 329 330 329 329 337 339 340 339 337 337 337 337 330 331 335 335 336
320 321 319 318 317 317 320 320 320 320 321 320 321 321 322 323 321 319 322 322 323 327 328 329 330 330 329 332 330 329 337 339 341 341 339 336 338 336 335 337 335 336 337
321 320 320 317 318 320 321 321 322 321 319 319 319 319 320 321 321 321 321 323 324 326 327 329 329 331 334 332 332 333 337 339 341 341 338 336 337 332 331 336 335 337 338
320 319 319 318 319 320 321 322 324 321 320 321 320 320 319 319 320 321 321 323 325 326 326 328 330 331 333 332 332 335 337 339 339 341 338 336 335 331 335 337 339 338 336
320 320 320 319 320 321 321 322 323 323 322 321 321 320 320 320 321 320 320 322 323 323 325 327 326 328 330 331 332 335 337 338 340 339 337 335 334 337 336 335 337 338 334
321 321 320 322 321 322 322 322 323 322 321 321 321 321 320 321 322 322 321 320 320 324 326 325 326 328 329 331 332 335 335 338 339 339 335 333 338 331 337 339 339 336 336
322 321 321 323 324 323 322 323 324 323 322 322 322 319 320 321 322 322 324 323 324 325 323 323 326 326 328 331 332 334 335 337 337 338 338 339 339 337 334 339 336 336 336
321 322 321 324 325 325 325 324 324 324 324 324 323 323 322 322 322 323 325 324 325 325 324 326 326 326 328 331 331 333 333 335 333 333 334 332 333 331 336 337 335 336 334
320 321 321 322 324 323 323 325 325 325 325 325 324 325 325 325 325 325 325 325 323 324 326 327 328 327 329 329 330 333 333 333 334 334 329 329 329 331 332 334 335 335 336
319 318 319 322 323 323 323 325 326 325 326 324 323 323 323 323 324 325 325 323 322 326 327 327 328 328 330 330 333 333 333 334 333 330 331 329 331 331 332 334 334 335 335
322 322 319 322 322 321 325 325 325 327 325 325 323 321 322 323 324 326 326 327 327 326 327 328 328 329 330 332 332 332 333 334 332 331 333 334 331 331 331 332 332 332 332
321 319 322 318 318 316 324 325 324 325 325 324 323 324 323 323 324 325 325 325 326 327 327 329 329 330 331 331 332 331 331 331 332 333 333 332 331 331 330 330 331 332 332
321 320 322 317 316 316 324 326 326 327 326 325 325 325 326 325 326 324 325 326 326 327 328 329 329 330 330 332 332 332 333 332 329 331 332 329 329 329 329 331 332 333 332
322 319 318 319 318 320 325 327 328 328 328 326 325 326 327 326 326 325 327 326 327 327 328 329 328 328 330 331 332 331 330 330 330 329 326 330 330 331 330 332 332 331 332
323 323 321 323 319 324 325 324 326 326 327 326 327 326 327 327 327 326 327 326 327 327 327 329 328 328 330 331 330 330 330 328 328 331 327 324 330 331 330 331 331 333 333
323 323 322 325 319 324 325 323 323 323 325 328 328 327 326 324 325 328 327 327 326 326 327 329 330 329 330 330 330 329 329 330 329 329 327 323 321 325 330 330 329 330 330
Wind_Speed
16 14 19 17 13 11 9 10 12 13 12 12 11 10 13 13 12 12 10 10 11 11 9 9 7 5 4 3 7 13 18 18 17 16 13 12 12 13 15 17 18 16 19
7 18 15 16 15 12 12 14 15 15 15 14 12 11 11 13 12 12 12 10 12 10 10 9 7 5 5 3 4 11 16 18 17 17 15 13 12 15 17 18 19 17 19
2 10 17 16 17 16 16 17 17 17 18 15 14 12 12 13 14 13 13 12 11 10 10 10 9 7 5 4 3 9 13 21 19 16 17 14 13 18 18 18 18 19 19
6 7 13 17 16 17 19 18 19 18 19 17 17 16 15 14 14 15 14 13 11 11 12 12 11 9 7 6 4 6 12 17 23 16 19 19 19 18 16 18 19 19 19
8 10 11 13 15 18 20 18 18 20 20 19 20 20 19 17 16 16 15 14 12 12 13 13 13 11 9 8 7 5 12 17 20 23 21 19 23 20 17 19 19 19 20
10 12 12 15 17 17 18 18 19 20 20 23 23 23 23 20 18 18 16 14 12 11 12 15 15 14 11 9 9 7 12 16 20 20 22 24 25 25 19 17 20 21 19
11 11 11 12 13 14 14 17 19 21 23 25 26 27 26 24 21 19 18 16 14 12 11 13 15 16 15 13 11 10 12 14 19 21 22 22 24 28 21 18 20 21 20
4 5 5 7 10 13 15 18 20 21 22 21 22 25 27 26 23 21 20 18 16 14 13 13 16 15 16 15 13 11 12 15 15 18 19 25 28 28 24 22 21 21 22
3 2 4 7 11 15 18 19 20 20 20 20 18 18 19 25 23 22 22 20 17 14 14 13 15 17 16 14 12 11 13 17 14 15 19 26 29 25 23 21 22 23 21
3 5 8 11 13 15 14 17 19 19 19 17 15 15 15 16 20 20 22 20 18 14 14 14 15 16 17 14 12 12 15 18 15 21 23 19 27 26 24 19 21 22 22
5 9 12 12 12 12 14 14 16 17 16 14 12 12 12 10 12 14 18 21 20 16 14 14 14 17 17 15 12 12 17 20 17 19 28 24 26 23 23 20 23 24 21
6 7 9 13 12 12 12 13 13 11 10 11 11 12 11 10 11 17 19 21 19 16 14 14 14 15 15 13 12 12 17 18 17 18 22 27 30 25 23 22 23 24 25
7 10 10 14 11 11 10 9 9 11 14 12 12 13 11 11 12 13 14 16 18 17 13 11 12 13 15 14 13 14 18 16 16 17 23 29 30 27 25 24 25 25 25
10 12 12 11 10 11 11 8 10 12 11 9 10 8 8 11 12 12 12 15 14 13 11 9 9 12 14 14 13 15 19 16 15 18 24 29 30 31 28 27 24 24 24
10 11 10 10 10 11 10 9 10 10 9 9 8 5 7 9 7 6 10 11 13 11 10 8 9 13 15 15 14 16 18 16 18 22 25 29 32 24 23 25 24 24 24
9 10 10 9 9 11 8 10 11 11 9 8 8 7 7 7 5 5 8 12 13 11 8 9 12 14 15 15 14 16 19 16 18 21 28 31 28 31 30 27 26 26 27
7 9 9 9 8 9 9 10 11 10 9 7 5 5 8 8 6 6 8 10 10 11 11 12 11 13 13 13 12 15 19 17 16 22 28 33 27 29 27 30 30 29 29
6 8 8 8 7 10 11 11 11 10 9 8 6 6 7 8 8 7 10 10 10 11 11 12 14 15 15 13 12 13 20 18 22 24 27 30 25 26 29 31 32 30 31
5 7 7 8 9 12 12 12 10 8 7 6 6 5 6 7 9 12 11 10 14 13 11 14 14 14 15 13 13 14 20 21 25 29 33 31 29 26 28 30 32 32 31
5 7 7 7 11 14 12 10 8 4 4 5 3 4 2 5 4 10 12 14 15 13 12 14 14 13 14 16 14 18 23 23 30 32 25 28 22 23 24 30 29 30 30
6 7 6 7 11 14 11 8 10 8 6 3 6 5 7 5 4 10 12 12 11 13 12 14 15 17 16 18 21 22 23 27 31 32 25 25 26 19 21 23 22 21 24
5 5 5 6 10 12 12 9 8 6 4 6 6 7 10 4 7 9 11 10 9 11 12 17 19 17 17 25 17 17 5 14 23 27 29 30 25 20 19 21 24 24 24
4 3 3 6 9 11 13 11 7 5 4 6 9 14 11 11 11 7 11 11 11 12 16 18 21 18 20 19 26 8 4 4 15 17 26 27 22 19 18 19 21 23 22
5 2 2 6 8 8 10 9 8 9 7 4 5 10 16 21 18 13 14 16 17 15 14 15 19 22 21 22 11 17 13 24 4 5 19 25 25 23 21 21 24 24 23
6 3 0 4 6 6 6 7 7 7 7 4 2 7 11 14 15 18 18 17 20 20 18 19 24 25 22 22 22 21 21 18 12 9 4 17 28 22 23 26 23 16 14
8 4 2 2 3 3 5 6 9 9 7 7 7 6 8 11 15 16 14 14 16 18 18 24 25 26 23 24 21 24 21 16 16 12 6 12 13 17 19 15 14 15 14
Wind_Direction
204 206 211 222 232 242 249 254 255 251 250 249 253 278 297 293 286 283 277 268 265 254 255 255 261 273 284 279 221 207 201 203 202 197 186 179 165 163 155 143 136 139 141
207 205 211 225 236 244 256 261 260 259 261 250 250 267 274 280 277 274 270 265 264 244 245 244 249 255 265 265 242 209 204 196 194 193 189 184 167 171 156 146 138 147 140
160 215 227 234 237 242 255 259 262 262 263 254 256 266 270 268 271 267 264 258 258 256 249 239 239 236 248 244 261 207 207 203 200 188 191 184 168 164 146 141 142 141 141
222 230 239 241 243 255 256 260 263 263 260 261 265 270 272 267 263 262 256 253 251 252 250 237 233 236 232 245 240 213 204 208 204 194 182 178 152 146 137 141 141 143 144
232 241 238 237 245 251 252 262 267 265 257 257 263 268 268 263 257 257 250 247 246 247 252 245 231 228 226 235 243 216 198 200 193 183 188 175 132 134 149 138 142 146 146
239 236 237 235 242 252 255 260 267 266 267 262 269 269 266 258 249 246 246 244 240 245 251 251 238 222 224 225 238 219 200 197 191 178 152 148 147 146 145 147 152 152 151
253 256 251 246 250 259 263 266 271 273 274 274 272 269 267 262 248 237 238 240 241 242 252 251 252 226 216 222 228 219 204 186 181 180 170 154 150 143 149 171 158 152 151
242 240 243 250 256 261 272 270 274 275 276 278 281 271 266 263 254 233 233 236 240 243 245 253 242 243 221 220 220 217 201 184 176 174 174 165 155 150 163 164 151 151 155
193 233 267 276 273 272 266 269 277 284 287 288 286 280 270 257 252 240 225 233 234 237 243 245 246 237 223 218 213 210 198 186 161 166 178 157 155 157 163 171 163 157 156
241 281 285 269 267 266 274 285 291 291 292 294 288 283 279 261 248 237 229 236 237 237 244 243 243 232 221 213 204 207 192 185 171 169 175 171 161 165 173 162 165 158 159
282 283 281 281 276 283 302 304 306 303 297 297 296 291 284 268 253 245 243 234 232 239 245 247 248 234 222 207 201 202 190 184 171 176 180 183 175 168 157 174 169 160 156
297 292 289 295 289 301 312 312 318 319 312 305 300 298 288 275 267 255 246 243 239 234 245 249 242 237 210 196 199 200 192 180 175 179 183 181 172 172 171 172 171 161 159
305 309 301 313 303 310 310 309 319 327 326 319 308 299 285 276 271 263 248 241 234 234 237 238 235 223 198 187 192 190 190 180 182 180 180 183 177 169 174 173 167 159 155
314 307 309 309 305 313 316 305 320 322 321 315 309 294 297 291 281 259 231 220 211 207 220 232 225 204 190 186 189 190 185 182 183 165 165 184 176 178 173 164 161 158 162
305 305 308 316 312 322 320 313 320 321 314 298 290 283 274 276 278 230 214 200 192 199 218 217 199 188 185 184 187 189 184 185 181 170 168 167 162 156 164 162 162 154 155
304 311 321 330 318 329 323 328 329 325 323 309 291 268 269 273 280 206 189 188 187 188 189 184 177 173 179 181 186 189 190 182 175 171 164 170 167 168 173 164 157 155 151
309 320 332 339 329 343 336 335 334 321 310 291 285 269 267 264 259 231 198 189 185 182 168 161 160 168 175 180 183 189 194 175 169 165 168 165 166 167 168 161 154 154 151
305 315 335 344 329 348 341 335 332 323 305 295 290 279 263 257 247 227 213 196 186 179 169 158 159 166 171 182 182 191 191 179 167 161 164 155 160 165 171 162 157 156 153
299 311 328 330 338 338 331 331 324 322 330 342 331 299 275 264 242 222 203 192 184 180 171 165 161 168 166 174 183 189 176 168 162 165 155 156 163 179 174 163 159 158 156
288 309 337 347 0 357 342 339 317 340 19 3 358 354 324 303 242 187 191 187 181 172 171 167 164 164 166 170 167 153 164 160 160 155 155 163 180 163 168 162 160 160 156
281 288 327 344 353 360 357 348 337 4 3 358 39 3 321 260 175 162 162 163 167 169 169 170 162 157 159 155 131 123 136 155 146 152 148 157 146 159 157 148 147 153 152
277 291 306 338 346 358 346 334 324 346 19 47 28 11 22 145 164 174 168 167 166 165 167 167 163 154 157 152 143 128 126 111 116 138 155 150 152 143 141 146 153 155 150
262 287 318 331 338 354 351 355 353 64 52 52 47 69 57 88 134 146 156 165 166 171 171 170 164 156 151 156 147 131 136 122 109 114 131 146 150 146 144 154 155 153 149
229 222 27 2 4 19 25 23 31 56 56 60 64 82 84 81 91 108 127 152 139 154 146 147 156 148 141 140 114 125 138 138 117 123 95 130 150 156 158 148 142 147 149
211 208 238 6 19 45 35 17 10 41 61 59 79 105 85 83 76 86 105 118 132 137 135 138 142 150 143 140 109 117 118 109 112 126 106 112 124 132 138 143 136 131 138
210 198 171 21 34 84 37 25 19 29 46 72 103 101 102 67 62 83 89 101 126 125 133 133 141 146 146 143 147 143 147 140 138 125 106 89 100 103 124 130 131 142 140